Regional Weather Roundup
Issued by NWS Cleveland, OH

Home | Current Version | Previous Version | Graphics & Text | Print | Product List | Glossary On
Versions: 1 2 3 4 5 6 7 8 9 10 11 12 13 14 15 16 17 18 19 20 21 22 23 24 25 26 27 28 29 30 31 32 33 34 35 36 37 38 39 40 41 42 43 44 45 46 47 48 49 50
000
ASUS41 KCLE 180010
RWRCLE
OHIO REGIONAL WEATHER ROUNDUP
NATIONAL WEATHER SERVICE CLEVELAND, OH
800 PM EDT FRI APR 17 2015

NOTE: "FAIR" INDICATES FEW OR NO CLOUDS BELOW 12,000 FEET WITH NO
SIGNIFICANT WEATHER AND/OR OBSTRUCTIONS TO VISIBILITY.

OHZ001>008-015>018-024>027-034-035-043-044-180100-
   NORTHWEST OHIO

CITY           SKY/WX    TMP DP  RH WIND       PRES   REMARKS
DEFIANCE       PTCLDY    73  42  32 W5        30.00S
FINDLAY        PTCLDY    70  37  29 S5        30.00F
TOLEDO EXPRESS CLEAR     73  39  29 NW7       29.99S
TOLEDO EXEC    PTCLDY    71  41  33 SW7       29.99F
LIMA           MOCLDY    73  38  27 CALM      30.02F
$$

OHZ009>014-019>023-028>033-038-089-180100-
   NORTHEAST OHIO

CITY           SKY/WX    TMP DP  RH WIND       PRES   REMARKS
CLE-HOPKINS    PTCLDY    60  46  59 CALM      30.05S
CLE-LAKEFRONT  CLEAR     57  49  74 CALM      30.03S
CUY CO. ARPT   CLEAR     61  50  67 NW7       30.05R
LORAIN-ELYRIA  CLEAR     62  48  60 CALM      30.03F
ASHTABULA      CLEAR     61  46  57 CALM      30.05R
AKRON-CANTON   MOCLDY    63  45  51 NW5       30.03S
WOOSTER        PTCLDY    64  50  60 CALM      30.04R
MANSFIELD      PTCLDY    67  41  38 CALM      30.04S
YOUNGSTOWN     PTCLDY    63  46  54 NW5       30.03R
$$

OHZ042-051>053-060>062-070>072-077>081-180100-
  SOUTHWEST OHIO

CITY           SKY/WX    TMP DP  RH WIND       PRES   REMARKS
CINC-COVINGTON MOCLDY    71  47  42 N5        30.01F
CINC-LUNKEN    MOCLDY    70  46  42 N3        30.01S
HAMILTON       MOCLDY    68  54  60 CALM      30.02S
DAYTON         MOCLDY    68  42  38 NW6       30.03S
WRIGHT-PAT AFB MOCLDY    70  38  31 N5        30.02S
DAYTON GENERAL MOCLDY    71  38  29 NW5       30.01S
WILMINGTON     MOCLDY    69  40  34 NE3       30.02S
$$

OHZ036-037-039>041-045>050-054>059-063>069-073>076-082>088-180100-
  CENTRAL AND SOUTHEAST OHIO

CITY           SKY/WX    TMP DP  RH WIND       PRES   REMARKS
COLUMBUS       MOCLDY    68  41  37 N7        30.01S
OSU AIRPORT    MOCLDY    65  41  41 N6        30.02S
BOLTON FIELD   MOCLDY    66  42  40 N7        30.03R
RICKENBACK AFB MOCLDY    68  42  39 NW5       30.01S
NEWARK         MOCLDY    65  45  48 NW5       30.01R
MARION         MOCLDY    69  42  37 CALM      30.03S
LANCASTER      MOCLDY    68  45  43 W3        30.02S
ZANESVILLE     MOCLDY    69  43  38 CALM      30.01R
NEW PHILLY     PTCLDY    69  49  48 N6        30.03R
$$


USA.gov is the U.S. government's official web portal to all federal, state and local government web resources and services.